Wind_Speed
13 13 13 13 13 13 13 13 13 14 14 14 13 13 13 13 13 13 13 13 13 13 13 13 13 14 14 15 15 15 16 17 18 18 19 19 20 20
14 14 14 14 14 14 14 14 15 15 15 15 15 15 15 15 15 15 15 15 15 15 15 15 15 15 15 16 17 17 18 19 20 21 21 21 22 23
16 15 15 16 16 16 16 16 16 16 16 16 17 17 17 17 17 17 17 17 17 17 17 17 17 17 18 18 19 20 21 21 22 23 23 24 24 25
17 16 16 17 17 18 18 17 17 17 17 17 18 18 19 19 19 19 20 19 19 19 20 20 20 20 21 21 22 22 23 23 24 25 25 26 27 27
17 17 17 17 18 18 18 18 18 18 19 19 19 19 20 20 21 21 21 21 21 21 22 22 22 22 23 23 24 24 25 26 26 27 27 28 28 29
17 17 18 17 18 18 18 19 19 19 19 20 20 20 21 22 22 22 23 22 22 23 24 24 25 25 25 26 26 27 27 28 28 28 29 30 30 31
18 19 20 19 19 19 19 20 20 20 20 20 21 21 21 22 23 24 25 24 24 25 26 26 27 27 27 28 28 29 30 30 30 31 31 32 33 33
19 19 20 20 20 21 21 21 22 22 22 22 22 23 22 23 24 25 25 26 26 27 28 28 28 29 30 30 30 31 31 31 32 32 33 34 35 36
19 20 21 21 21 22 23 23 23 24 24 24 24 24 24 25 26 26 26 27 28 28 29 30 30 31 32 32 32 33 34 34 35 36 36 37 37 38
20 21 21 21 23 23 23 23 22 23 24 25 25 25 25 26 27 27 28 29 30 31 32 32 33 34 36 36 35 36 37 38 38 39 39 40 41 41
20 21 21 22 23 23 23 23 24 24 24 24 24 24 25 27 28 29 30 31 31 32 34 34 35 36 37 37 38 39 40 41 41 42 42 43 44 45
22 22 22 22 23 23 23 23 23 24 24 25 26 26 27 28 29 30 31 32 33 34 34 35 36 37 38 38 40 41 42 42 43 44 45 46 47 48
22 22 22 23 22 23 23 24 25 25 25 26 27 28 28 29 30 31 33 33 34 35 35 36 37 39 41 41 42 43 44 45 46 47 48 49 50 51
21 22 22 23 23 23 24 25 26 26 27 28 29 29 29 30 31 32 33 34 35 36 37 38 39 40 42 43 44 45 46 47 47 47 48 49 49 50
22 22 23 24 25 25 25 26 27 27 28 28 29 29 30 30 31 32 33 35 36 37 38 39 40 42 43 44 45 46 47 47 48 48 48 48 48 48
23 24 24 25 25 26 26 26 27 27 28 29 30 31 31 31 33 34 35 36 38 38 39 41 42 43 44 45 45 46 47 47 47 48 48 48 49 49
24 25 25 25 26 26 27 27 28 28 29 30 31 31 32 32 34 35 36 37 38 40 41 42 43 44 44 45 46 47 47 48 49 49 49 49 49 49
25 25 26 27 27 28 28 29 30 30 32 32 32 33 34 35 35 36 37 38 39 40 41 42 43 44 45 45 46 47 47 48 48 49 49 48 48 48
26 27 27 28 29 29 30 30 31 31 33 33 34 34 35 35 36 37 37 38 39 40 41 42 43 44 45 46 46 47 47 48 48 48 48 47 47 47
27 28 29 29 30 31 31 32 32 33 34 34 35 35 36 36 37 37 38 39 40 41 42 43 43 44 45 45 46 46 46 46 46 47 47 47 46 46
29 29 30 30 31 32 32 32 33 34 34 35 36 36 37 37 37 38 39 40 40 41 42 42 43 43 44 44 45 45 45 45 46 46 45 45 45 44
29 30 31 32 32 33 33 34 35 35 36 36 36 37 37 38 38 39 40 40 41 42 42 42 43 43 43 44 44 45 45 45 45 45 44 44 44 43
30 31 31 32 32 33 34 35 35 36 36 36 37 38 38 39 40 40 41 41 42 42 42 42 42 42 43 43 43 44 44 45 44 44 43 42 42 41
Wind_Direction
270 275 275 276 279 278 277 275 275 274 274 275 276 274 272 273 273 274 275 276 277 278 278 279 279 279 279 278 279 279 280 281 282 284 284 285 284 283
271 275 276 276 279 278 279 279 278 276 275 274 274 273 271 271 274 275 274 276 276 276 276 277 278 279 280 279 280 280 281 283 283 284 283 284 283 283
273 274 276 276 278 279 279 278 279 278 276 273 272 272 272 271 273 274 274 275 276 275 275 277 279 279 280 280 282 283 283 284 284 283 283 283 283 283
273 274 276 275 277 278 278 277 278 278 277 275 273 273 273 275 275 273 273 274 275 276 276 277 277 280 280 281 281 283 284 284 284 284 283 284 284 283
276 275 276 276 278 277 277 279 279 278 277 277 276 273 273 274 275 274 275 275 274 276 278 279 280 280 281 282 282 284 284 285 285 284 283 284 284 284
276 275 278 281 280 277 277 278 279 278 278 278 277 276 276 276 275 276 278 277 276 277 279 279 279 280 281 282 283 285 285 285 286 285 284 284 284 284
275 277 278 280 281 279 278 278 278 279 279 278 279 278 278 277 275 276 277 278 277 278 279 279 278 280 281 281 282 284 285 286 286 286 285 285 285 285
275 279 281 280 279 279 279 279 278 278 279 279 280 279 279 278 276 276 277 278 277 278 278 279 279 280 281 282 282 283 285 286 286 287 287 286 285 285
276 279 282 282 280 278 278 280 278 277 278 280 280 279 280 279 277 276 277 277 277 278 278 279 280 281 282 284 283 283 284 285 285 285 285 285 286 285
278 281 283 281 281 279 279 279 280 280 280 280 280 280 280 280 279 277 276 277 278 280 280 280 280 281 282 283 284 284 284 284 284 284 284 284 286 286
277 279 279 281 282 281 280 279 279 280 282 283 282 283 281 280 280 279 279 280 281 281 281 281 282 283 284 285 285 285 287 287 287 287 287 287 286 285
275 277 280 284 284 283 281 281 281 282 283 285 285 284 284 283 281 280 280 281 282 283 283 283 283 285 285 287 287 287 288 288 288 289 289 288 288 287
279 282 284 285 287 286 284 282 283 285 285 285 285 286 285 283 283 282 282 282 283 283 283 282 283 285 287 287 288 289 289 289 289 290 290 289 288 288
281 284 285 285 286 287 287 285 285 286 288 288 288 288 287 286 286 285 284 284 285 285 284 284 285 286 287 287 288 289 290 290 290 291 290 290 289 288
282 282 285 287 288 288 288 288 288 289 290 290 291 291 290 290 289 289 288 287 288 288 287 287 288 289 289 290 290 290 290 290 291 291 291 291 291 290
283 283 286 288 290 290 290 291 291 291 292 293 293 292 291 291 291 290 289 289 289 289 289 290 291 290 290 290 290 291 290 290 291 291 292 292 292 291
285 286 288 289 291 292 292 292 291 293 293 294 294 294 293 292 293 292 290 290 291 291 292 292 292 292 291 292 292 292 292 292 292 292 292 292 292 292
287 288 289 290 291 292 292 293 293 293 293 293 293 294 294 294 295 294 293 293 293 293 293 293 293 293 293 293 294 294 294 294 294 294 294 293 293 293
288 290 291 291 292 293 292 292 293 294 294 294 294 294 294 294 295 294 294 295 295 295 295 295 295 295 296 296 296 295 295 295 295 295 295 295 294 293
288 290 292 292 293 294 295 294 294 295 295 295 295 296 296 296 296 296 296 297 298 298 298 298 298 298 298 298 297 297 297 297 296 296 295 295 295 294
290 290 291 292 292 294 295 295 296 295 296 296 296 296 297 297 298 298 298 298 299 299 300 300 300 300 300 300 300 300 299 298 298 298 297 296 295 294
292 293 294 295 294 294 294 295 296 297 297 297 298 298 298 298 298 299 299 300 300 301 301 301 302 302 302 301 301 301 300 300 299 298 297 297 296 296
295 296 296 296 295 295 295 296 298 299 299 299 300 300 299 299 299 300 301 301 301 302 302 302 302 302 303 303 303 302 302 301 300 300 299 298 298 298
Height
5894 5894 5893 5893 5892 5892 5891 5891 5891 5890 5889 5889 5888 5888 5888 5888 5888 5887 5887 5886 5886 5886 5885 5884 5884 5883 5883 5882 5881 5881 5880 5879 5878 5877 5877 5876 5875 5874
5890 5890 5890 5889 5889 5888 5887 5887 5887 5886 5885 5885 5885 5884 5884 5884 5884 5883 5883 5883 5882 5881 5881 5880 5879 5879 5878 5878 5877 5876 5875 5874 5873 5872 5871 5870 5869 5868
5887 5886 5886 5886 5885 5884 5884 5883 5882 5882 5882 5881 5880 5880 5880 5879 5879 5879 5878 5878 5878 5877 5876 5876 5875 5874 5874 5873 5872 5871 5870 5869 5868 5866 5865 5864 5863 5862
5883 5882 5882 5882 5881 5880 5879 5879 5878 5878 5877 5877 5876 5875 5875 5874 5874 5874 5873 5873 5872 5872 5871 5871 5870 5869 5868 5867 5866 5865 5863 5862 5861 5860 5859 5857 5856 5855
5878 5878 5877 5877 5876 5876 5875 5874 5874 5873 5873 5872 5871 5870 5870 5869 5869 5868 5867 5867 5867 5866 5866 5865 5864 5863 5862 5861 5859 5858 5857 5856 5854 5853 5851 5850 5848 5847
5874 5874 5873 5872 5872 5871 5870 5870 5869 5869 5868 5867 5866 5865 5865 5864 5863 5863 5862 5861 5861 5860 5859 5858 5857 5856 5855 5854 5853 5851 5850 5848 5846 5845 5843 5842 5840 5838
5870 5869 5869 5868 5867 5867 5866 5865 5864 5863 5862 5861 5861 5860 5859 5858 5857 5857 5856 5855 5854 5853 5852 5851 5850 5849 5848 5846 5845 5843 5842 5840 5838 5836 5834 5833 5831 5829
5865 5865 5864 5863 5862 5862 5860 5860 5859 5858 5857 5856 5855 5854 5853 5852 5851 5850 5849 5849 5848 5847 5845 5844 5842 5841 5840 5838 5837 5835 5833 5831 5829 5827 5825 5823 5821 5819
5860 5860 5859 5858 5857 5856 5855 5854 5853 5852 5851 5850 5849 5847 5846 5845 5844 5843 5842 5841 5840 5839 5837 5836 5834 5833 5831 5829 5828 5826 5824 5822 5820 5818 5815 5813 5811 5808
5855 5855 5853 5852 5851 5850 5848 5848 5847 5846 5844 5843 5842 5840 5839 5838 5837 5836 5835 5834 5832 5831 5829 5828 5826 5824 5822 5820 5818 5816 5814 5812 5809 5807 5804 5802 5800 5797
5850 5849 5848 5847 5846 5844 5843 5842 5841 5839 5838 5836 5835 5833 5832 5831 5829 5828 5827 5825 5824 5822 5820 5818 5816 5814 5812 5810 5807 5805 5803 5800 5797 5795 5792 5790 5787 5784
5844 5843 5842 5841 5840 5838 5837 5836 5834 5833 5831 5829 5828 5826 5825 5823 5821 5820 5818 5816 5815 5813 5811 5809 5807 5804 5802 5800 5796 5794 5791 5788 5785 5782 5779 5776 5773 5770
5839 5838 5836 5835 5834 5832 5831 5829 5828 5826 5824 5823 5821 5819 5817 5814 5813 5811 5809 5807 5805 5803 5801 5799 5796 5793 5791 5788 5785 5782 5778 5775 5772 5768 5765 5762 5758 5754
5833 5832 5831 5830 5828 5826 5825 5823 5821 5819 5817 5815 5813 5811 5808 5806 5803 5801 5799 5797 5795 5793 5790 5788 5785 5782 5779 5776 5773 5769 5765 5761 5758 5754 5750 5746 5743 5739
5828 5827 5825 5824 5822 5820 5818 5816 5814 5812 5810 5807 5805 5802 5800 5797 5795 5792 5789 5787 5784 5782 5779 5776 5773 5770 5767 5763 5759 5755 5752 5748 5744 5740 5736 5731 5728 5724
5822 5820 5819 5817 5815 5813 5811 5809 5806 5804 5801 5799 5797 5794 5791 5788 5785 5782 5780 5777 5774 5771 5768 5765 5761 5758 5754 5750 5746 5742 5738 5734 5730 5726 5721 5717 5713 5709
5815 5814 5812 5810 5808 5806 5804 5801 5799 5797 5794 5791 5788 5785 5782 5779 5775 5772 5769 5766 5763 5760 5757 5753 5749 5745 5741 5737 5733 5728 5724 5720 5716 5712 5707 5703 5698 5694
5809 5807 5805 5803 5801 5799 5796 5794 5791 5788 5786 5782 5779 5776 5773 5769 5766 5762 5759 5755 5752 5748 5744 5740 5736 5732 5728 5724 5720 5715 5711 5706 5702 5697 5692 5688 5683 5679
5803 5801 5798 5796 5793 5791 5788 5785 5783 5780 5776 5773 5770 5766 5763 5760 5756 5752 5748 5744 5740 5736 5732 5728 5724 5719 5715 5711 5706 5701 5697 5692 5687 5682 5678 5673 5669 5664
5795 5793 5791 5788 5785 5782 5779 5777 5774 5770 5767 5764 5760 5757 5753 5749 5746 5742 5738 5734 5729 5725 5721 5716 5711 5707 5702 5697 5693 5688 5683 5678 5673 5668 5664 5659 5654 5650
5787 5785 5782 5779 5777 5774 5771 5767 5764 5761 5757 5754 5750 5746 5743 5739 5735 5731 5727 5722 5718 5714 5709 5704 5699 5694 5689 5684 5679 5675 5670 5664 5659 5654 5649 5645 5641 5637
5779 5776 5774 5771 5768 5764 5761 5758 5755 5751 5747 5744 5740 5736 5732 5728 5724 5720 5715 5711 5707 5702 5697 5692 5687 5682 5676 5671 5666 5661 5656 5651 5646 5641 5636 5631 5627 5623
5770 5768 5765 5762 5759 5756 5752 5749 5745 5741 5737 5734 5730 5725 5721 5717 5713 5708 5704 5699 5694 5690 5685 5680 5674 5669 5664 5659 5653 5648 5643 5638 5632 5628 5623 5618 5614 5610